[TLELIST] Archives

 

[TLELIST] Current TLEs

September 25th 2024 PDT

HST 1 20580U 90037B 24268.68679777 .00010097 00000-0 45157-3 0 9995 2 20580 28.4696 37.6494 0003227 58.2567 301.8340 15.19625089692172 ISS (ZARYA) 1 25544U 98067A 24269.24123484 .00023788 00000-0 42867-3 0 9999 2 25544 51.6403 179.8064 0006693 28.3183 106.9230 15.49639069474069 CXO 1 25867U 99040B 24270.99516273 .00000980 00000-0 00000-0 0 9994 2 25867 43.4105 145.4198 8787709 301.9463 0.4326 0.37805738 14945 ...Continue Reading

[TLELIST] Current TLEs

September 24th 2024 PDT

HST 1 20580U 90037B 24267.76735034 .00011901 00000-0 53396-3 0 9991 2 20580 28.4695 43.8268 0003178 49.3240 310.7629 15.19611173692036 ISS (ZARYA) 1 25544U 98067A 24268.27436881 -.00000262 00000-0 34588-5 0 9995 2 25544 51.6388 184.5903 0006708 25.8066 112.1770 15.49562670473919 CXO 1 25867U 99040B 24270.99464385 .00000980 00000-0 00000+0 0 9999 2 25867 43.4105 145.4197 8787710 301.9463 0.3621 0.37806063 26106 ...Continue Reading

[TLELIST] Current TLEs

September 23rd 2024 PDT

HST 1 20580U 90037B 24266.78221635 .00009145 00000-0 40856-3 0 9993 2 20580 28.4691 50.4452 0003116 39.6315 320.4505 15.19590835691882 ISS (ZARYA) 1 25544U 98067A 24267.36480617 .00052153 00000-0 93054-3 0 9996 2 25544 51.6385 189.0942 0007090 23.8528 76.9627 15.49523432473770 CXO 1 25867U 99040B 24268.35017806 .00000934 00000-0 00000+0 0 9997 2 25867 43.3521 145.6166 8791034 301.8092 0.4241 0.37808168 26091 ...Continue Reading

[TLELIST] Current TLEs

September 23rd 2024 PDT

HST 1 20580U 90037B 24266.78221635 .00009145 00000-0 40856-3 0 9993 2 20580 28.4691 50.4452 0003116 39.6315 320.4505 15.19590835691882 ISS (ZARYA) 1 25544U 98067A 24267.36480617 .00052153 00000-0 93054-3 0 9996 2 25544 51.6385 189.0942 0007090 23.8528 76.9627 15.49523432473770 CXO 1 25867U 99040B 24268.35017806 .00000934 00000-0 00000+0 0 9997 2 25867 43.3521 145.6166 8791034 301.8092 0.4241 0.37808168 26091 ...Continue Reading

[TLELIST] Current TLEs

September 22nd 2024 PDT

HST 1 20580U 90037B 24265.53436471 .00009070 00000-0 40542-3 0 9990 2 20580 28.4685 58.8281 0003002 26.1157 333.9588 15.19569439691691 ISS (ZARYA) 1 25544U 98067A 24266.39798760 .00041594 00000-0 74589-3 0 9998 2 25544 51.6398 193.8799 0007144 19.4394 84.7888 15.49480284473626 CXO 1 25867U 99040B 24268.35017806 .00000934 00000-0 00000+0 0 9997 2 25867 43.3521 145.6166 8791034 301.8092 0.4241 0.37808168 26091 ...Continue Reading

[TLELIST] Current TLEs

September 21st 2024 PDT

HST 1 20580U 90037B 24265.14030275 .00009784 00000-0 43808-3 0 9999 2 20580 28.4685 61.4761 0002978 22.3519 337.7203 15.19563613691891 ISS (ZARYA) 1 25544U 98067A 24265.36451681 .00042641 00000-0 76562-3 0 9999 2 25544 51.6393 198.9943 0007456 14.7540 80.9920 15.49430898473468 CXO 1 25867U 99040B 24268.34899607 .00000934 00000-0 00000+0 0 9993 2 25867 43.3521 145.6169 8791028 301.8089 0.2627 0.37808507 26096 ...Continue Reading

[TLELIST] Current TLEs

September 21st 2024 PDT

HST 1 20580U 90037B 24265.14030275 .00009784 00000-0 43808-3 0 9999 2 20580 28.4685 61.4761 0002978 22.3519 337.7203 15.19563613691891 ISS (ZARYA) 1 25544U 98067A 24265.36451681 .00042641 00000-0 76562-3 0 9999 2 25544 51.6393 198.9943 0007456 14.7540 80.9920 15.49430898473468 CXO 1 25867U 99040B 24268.34899607 .00000934 00000-0 00000+0 0 9993 2 25867 43.3521 145.6169 8791028 301.8089 0.2627 0.37808507 26096 ...Continue Reading

[TLELIST] Current TLEs

September 20th 2024 PDT

HST 1 20580U 90037B 24263.82675028 .00010303 00000-0 46211-3 0 9993 2 20580 28.4682 70.3029 0002896 8.3166 351.7475 15.19541342691437 ISS (ZARYA) 1 25544U 98067A 24264.34013905 .00019814 00000-0 36189-3 0 9996 2 25544 51.6387 204.0640 0007518 13.8616 124.3173 15.49370925473307 CXO 1 25867U 99040B 24265.70620479 .00000929 00000-0 00000-0 0 9994 2 25867 43.2714 145.8678 8793999 301.6310 0.5853 0.37811701 14934 ...Continue Reading

[TLELIST] Current TLEs

September 19th 2024 PDT

HST 1 20580U 90037B 24262.90725159 .00009267 00000-0 41496-3 0 9999 2 20580 28.4677 76.4812 0002905 358.7928 1.2658 15.19523172691551 ISS (ZARYA) 1 25544U 98067A 24263.36748657 .00019358 00000-0 35430-3 0 9997 2 25544 51.6384 208.8799 0007224 11.1887 98.2784 15.49330945473154 CXO 1 25867U 99040B 24265.70479581 .00000929 00000-0 00000-0 0 9990 2 25867 43.2713 145.8679 8794012 301.6310 0.3930 0.37810694 14924 ...Continue Reading

[TLELIST] Current TLEs

September 18th 2024 PDT

HST 1 20580U 90037B 24261.85638391 .00013888 00000-0 62645-3 0 9996 2 20580 28.4678 83.5421 0002820 347.1069 12.9451 15.19505013691139 ISS (ZARYA) 1 25544U 98067A 24262.33940465 .00065611 00000-0 11749-2 0 9993 2 25544 51.6381 213.9683 0007583 5.2664 126.2735 15.49317117472990 CXO 1 25867U 99040B 24263.06360888 .00001045 00000-0 00000+0 0 9995 2 25867 43.1647 146.1776 8794145 301.4188 0.8937 0.37808585 26076 ...Continue Reading
  • This mailing list is a public mailing list - anyone may join or leave, at any time.
  • This mailing list is announce-only.

International Space Station (ISS) / Hubble Space Telescope (HST) / Chandra X-Ray Observatory Orbital Data via EMAIL

Privacy Policy:

Private list